Regional Weather Roundup
Issued by NWS

Home | Current Version | Previous Version | Text Only | Print | Product List | Glossary On
Versions: 1 2 3 4 5 6 7 8 9 10 11 12 13 14 15 16 17 18 19 20 21 22 23 24 25 26 27 28 29 30 31 32 33 34 35 36 37 38 39 40 41 42 43 44 45 46 47 48 49 50
000
ASUS43 KDTX 191901
RWRMI
MICHIGAN HOURLY REGIONAL WEATHER ROUNDUP
NATIONAL WEATHER SERVICE DETROIT/PONTIAC MI
300 PM EDT SUN APR 19 2015

NOTE: "FAIR" INDICATES FEW OR NO CLOUDS BELOW 12,000 FEET WITH NO
SIGNIFICANT WEATHER AND/OR OBSTRUCTION TO VISIBILITY.

MIZ047>049-052>055-059>063-066>070-074>076-081>083-192000-
SOUTHEAST LOWER MICHIGAN

CITY           SKY/WX    TMP DP  RH WIND       PRES   REMARKS
ADRIAN         CLOUDY    59  39  47 E18G26    29.78F
ALMA           MOSUNNY   66  32  28 E18       29.81F
ANN ARBOR      PTSUNNY   61  42  49 E13       29.80F
BAD AXE        SUNNY     58  29  34 E16G25    29.90F
CARO           MOSUNNY   62  36  38 E14G22    29.84F
DETROIT CITY   PTSUNNY   52  39  61 E18       29.85F
DETROIT        PTSUNNY   57  41  55 NE13G22   29.83F
FLINT          MOSUNNY   67  37  33 SE16G24   29.80F
GROSSE ILE     PTSUNNY   55  43  62 E16G23    29.81F
HILLSDALE      CLOUDY    62  38  41 E17G23    29.75F
HOWELL         PTSUNNY   61  33  35 E17       29.80F

CITY           SKY/WX    TMP DP  RH WIND       PRES   REMARKS
JACKSON        CLOUDY    62  38  40 E17G24    29.76F
LAMBERTVILLE   CLOUDY    52  39  62 E15G22    29.79F
LANSING        MOSUNNY   68  35  29 E20       29.77F
LAPEER         FAIR      64  34  33 E6G21     29.83F
MASON          PTSUNNY   63  35  35 E14G22    29.78F
MONROE         PTSUNNY   57  41  54 NE13G21   29.79F
PONTIAC        CLOUDY    58  35  42 SE18G25   29.82F
PORT HOPE        N/A     44  35  70 E8        29.92F
PORT HURON     PTSUNNY   54  43  66 E15       29.86F
TRI CITIES     MOSUNNY   64  35  34 E13G24    29.84F
TROY           PTSUNNY   54  39  57 E15G23    29.87F
SAGINAW HB     MOSUNNY   63  34  34 E16G22    29.83F
$$
MIZ043>046-050>051-056>058-064>065-071>073-077>080-192000-
SOUTHWEST LOWER MICHIGAN

CITY           SKY/WX    TMP DP  RH WIND       PRES   REMARKS
BATTLE CREEK   PTSUNNY   68  35  29 E17G23    29.73F
BENTON HARBOR  CLOUDY    69  39  33 E18G25    29.66F
BIG RAPIDS     MOSUNNY   64  27  25 E17G25    29.77F
COLDWATER      CLOUDY    64  39  39 E15       29.73F
FREMONT        FAIR      67  19  15 SE16G24   29.74F
HOLLAND        FAIR      70  36  28 E17       29.70F
GRAND RAPIDS   PTSUNNY   68  33  27 E15G25    29.73F
IONIA          FAIR      67  32  27 E16G23    29.75F
KALAMAZOO      PTSUNNY   70  36  28 E14G21    29.71F
LUDINGTON      PTSUNNY   71  15  11 SE15G25   29.72F
MARSHALL       PTSUNNY   65  37  36 E10G21    29.73F
MOUNT PLEASANT SUNNY     62  33  33 E16G23    29.82F
MUSKEGON       MOSUNNY   69  32  25 E14G23    29.72F
SOUTH HAVEN    CLOUDY    72  31  22 E14       29.67F
$$
MIZ016>042-192000-
NORTHERN LOWER MICHIGAN

CITY           SKY/WX    TMP DP  RH WIND       PRES   REMARKS
ALPENA         SUNNY     48  31  51 E16G23    29.98F
BEAVER ISLAND  CLOUDY    45  33  61 E15G23    29.84F
BELLAIRE       MOSUNNY   67  17  14 SE17G23   29.81F
CADILLAC       PTSUNNY   65  19  17 E20       29.79F
CHARLEVOIX     MOSUNNY   63  27  26 E18G24    29.84F
FRANKFORT      PTSUNNY   71   7   8 SE17      29.74F
GAYLORD        SUNNY     60  19  20 SE20G30   29.86F
GRAYLING       FAIR      62  16  16 E20G29    29.85F
HARBOR SPRINGS SUNNY     62  28  27 E16G23    29.85F
HOUGHTON LAKE  MOSUNNY   62  24  23 E21G29    29.84F
MANISTEE       PTSUNNY   68  23  18 SE14G24   29.75F
OSCODA         MOSUNNY   49  32  51 NE14      29.95F
PELLSTON       MOSUNNY   58  30  34 E17G31    29.87F
ROGERS CITY    SUNNY     45  36  70 E21       29.98F
TRAVERSE CITY  PTSUNNY   67  22  18 SE17G28   29.78F
$$
MIZ007>008-015-192000-
EASTERN UPPER MICHIGAN

CITY           SKY/WX    TMP DP  RH WIND       PRES   REMARKS
KINROSS        MOSUNNY   48  28  46 E22G30    29.94F
MACKINAC ISLAN MOSUNNY   39  31  73 E22G38    29.93F WCI  29
NEWBERRY       PTSUNNY   53  32  44 SE24G33   29.88F
S. S. MARIE    SUNNY     49  27  42 SE14G23   29.95F
$$
MIZ004>006-011>014-085-192000-
CENTRAL UPPER MICHIGAN

CITY           SKY/WX    TMP DP  RH WIND       PRES   REMARKS
MANISTIQUE     CLOUDY    47  33  57 E15G21    29.85F
ESCANABA       CLOUDY    45  30  57 E13       29.81F
MENOMINEE      PTSUNNY   48  30  49 E10       29.78F
SAWYER-GWINN   CLOUDY    48  28  46 S18       29.80F
$$
MIZ001>003-009>011-084-192000-
WESTERN UPPER MICHIGAN

CITY           SKY/WX    TMP DP  RH WIND       PRES   REMARKS
IRON MOUNTAIN  PTSUNNY   51  31  46 SE12      29.77F
HOUGHTON       CLOUDY    44  33  65 E10       29.71F
COPPER HARBOR    N/A     42  31  64 S15G29    29.75F
IRONWOOD       CLOUDY    54  39  58 S7        29.61F
$$

ABBREVIATIONS USED IN REMARKS
   TC - TEMPERATURE IN CELSIUS
  WCI - WIND CHILL INDEX
   HX - HEAT INDEX
  VSB - VISIBILITY



USA.gov is the U.S. government's official web portal to all federal, state and local government web resources and services.